Location: Ciserano
(45.5833°N, 9.6000°E)
Time: 09:39:43
(UTC+00:00)

Meteor PRIRODA - Pass Details

Date: 29 November 2020
Orbit: 489 x 510 km, 97.6° (Epoch: 25 January)

Event Time Altitude Azimuth Distance (km) Brightness Sun altitude
Rises 04:30:22 0° 16° (NNE) 2,633 7.4 -22.0°
Reaches altitude 10° 04:32:30 10° 21° (NNE) 1,742 6.5 -21.6°
Maximum altitude 04:36:12 57° 100° (E) 608 4.3 -21.0°
Drops below altitude 10° 04:39:53 10° 180° (S) 1,726 6.5 -20.3°
Sets 04:41:59 0° 185° (S) 2,606 7.4 -20.0°
